[TLELIST] Archives

 

[TLELIST] Current TLEs

August 20th 2026 PDT

0 HST 1 20580U 90037B 26231.76025349 .00006233 00000-0 19223-3 0 9998 2 20580 28.4735 5.8570 0002250 121.4675 238.6142 15.31387257798323 0 ISS (ZARYA) 1 25544U 98067A 26232.17880947 .00009753 00000-0 18154-3 0 9995 2 25544 51.6332 343.3775 0007674 65.0551 295.1235 15.49524101581676 0 CXO 1 25867U 99040B 26232.84649600 .00000785 00000-0 00000-0 0 9992 2 25867 57.0423 114.9727 7732957 309.6658 0.5706 0.37799654 17566 ...Continue Reading

[TLELIST] Current TLEs

August 19th 2026 PDT

0 HST 1 20580U 90037B 26230.78272097 .00005894 00000-0 18145-3 0 9997 2 20580 28.4733 12.5438 0002308 112.1990 247.8852 15.31375919798175 0 ISS (ZARYA) 1 25544U 98067A 26231.14690894 .00010553 00000-0 19587-3 0 9992 2 25544 51.6332 348.4866 0007662 61.8697 298.3065 15.49503867581510 0 CXO 1 25867U 99040B 26232.84649600 .00000785 00000-0 00000-0 0 9992 2 25867 57.0423 114.9727 7732957 309.6658 0.5706 0.37799654 17566 ...Continue Reading

[TLELIST] Current TLEs

August 18th 2026 PDT

0 HST 1 20580U 90037B 26229.74001139 .00005342 00000-0 16385-3 0 9990 2 20580 28.4732 19.6767 0002347 102.7079 257.3780 15.31365057798014 0 ISS (ZARYA) 1 25544U 98067A 26230.17948830 .00007066 00000-0 13399-3 0 9990 2 25544 51.6335 353.2764 0007537 58.8135 301.3591 15.49484232581364 0 CXO 1 25867U 99040B 26232.84649600 .00000785 00000-0 00000-0 0 9992 2 25867 57.0423 114.9727 7732957 309.6658 0.5706 0.37799654 17566 ...Continue Reading

[TLELIST] Current TLEs

August 17th 2026 PDT

0 HST 1 20580U 90037B 26228.82763442 .00004645 00000-0 14156-3 0 9999 2 20580 28.4730 25.9178 0002382 94.1904 265.8964 15.31356105797873 0 ISS (ZARYA) 1 25544U 98067A 26228.82508390 .00005081 00000-0 98725-4 0 9994 2 25544 51.6333 359.9821 0007604 53.8870 306.2821 15.49464385581159 0 CXO 1 25867U 99040B 26230.20277318 .00000708 00000-0 00000-0 0 9998 2 25867 57.0216 115.0151 7736045 309.7125 0.6172 0.37805232 17558 ...Continue Reading

[TLELIST] Current TLEs

August 16th 2026 PDT

0 HST 1 20580U 90037B 26227.85008229 .00004324 00000-0 13132-3 0 9993 2 20580 28.4729 32.6051 0002395 85.2668 274.8201 15.31348528797726 0 ISS (ZARYA) 1 25544U 98067A 26228.18012382 .00004999 00000-0 97292-4 0 9999 2 25544 51.6332 3.1747 0007602 51.3505 308.8163 15.49457398581051 0 CXO 1 25867U 99040B 26230.20277318 .00000708 00000-0 00000-0 0 9998 2 25867 57.0216 115.0151 7736045 309.7125 0.6172 0.37805232 17558 ...Continue Reading

[TLELIST] Current TLEs

August 15th 2026 PDT

0 HST 1 20580U 90037B 26226.87252531 .00004048 00000-0 12251-3 0 9995 2 20580 28.4728 39.2921 0002408 75.4351 284.6512 15.31340965797573 0 ISS (ZARYA) 1 25544U 98067A 26227.08368470 .00004985 00000-0 97076-4 0 9994 2 25544 51.6331 8.6030 0007568 47.4901 312.6726 15.49446860580882 0 CXO 1 25867U 99040B 26230.20269284 .00000708 00000-0 00000+0 0 9990 2 25867 57.0216 115.0152 7736065 309.7125 0.6063 0.37804915 17557 ...Continue Reading

[TLELIST] Current TLEs

August 14th 2026 PDT

0 HST 1 20580U 90037B 26225.89496359 .00003633 00000-0 10922-3 0 9996 2 20580 28.4728 45.9793 0002408 66.5636 293.5213 15.31333498797425 0 ISS (ZARYA) 1 25544U 98067A 26225.85824407 .00004307 00000-0 85020-4 0 9998 2 25544 51.6326 14.6698 0007495 43.6909 316.4672 15.49433609580696 0 CXO 1 25867U 99040B 26227.55879979 .00000709 00000-0 00000-0 0 9994 2 25867 57.0099 115.0559 7740836 309.7608 0.6456 0.37807941 17541 ...Continue Reading

[TLELIST] Current TLEs

August 13th 2026 PDT

0 HST 1 20580U 90037B 26224.91739729 .00003169 00000-0 94370-4 0 9993 2 20580 28.4728 52.6665 0002425 57.2025 302.8804 15.31326333797279 0 ISS (ZARYA) 1 25544U 98067A 26225.14877410 .00003778 00000-0 75606-4 0 9992 2 25544 51.6324 18.1827 0007533 41.6914 318.4648 15.49426097580580 0 CXO 1 25867U 99040B 26227.55879836 .00000709 00000-0 00000-0 0 9996 2 25867 57.0099 115.0558 7740838 309.7608 0.6455 0.37807944 17544 ...Continue Reading

[TLELIST] Current TLEs

August 12th 2026 PDT

0 HST 1 20580U 90037B 26223.93982698 .00003452 00000-0 10345-3 0 9993 2 20580 28.4728 59.3534 0002372 48.5650 311.5149 15.31321214797122 0 ISS (ZARYA) 1 25544U 98067A 26224.11681231 .00003399 00000-0 68868-4 0 9993 2 25544 51.6322 23.2919 0007501 38.2000 321.9519 15.49416382580425 0 CXO 1 25867U 99040B 26224.91393943 .00000777 00000-0 00000-0 0 9998 2 25867 56.9891 115.1061 7747830 309.8023 0.5824 0.37805620 17530 ...Continue Reading

[TLELIST] Current TLEs

August 12th 2026 PDT

0 HST 1 20580U 90037B 26223.93982698 .00003452 00000-0 10345-3 0 9993 2 20580 28.4728 59.3534 0002372 48.5650 311.5149 15.31321214797122 0 ISS (ZARYA) 1 25544U 98067A 26224.11681231 .00003399 00000-0 68868-4 0 9993 2 25544 51.6322 23.2919 0007501 38.2000 321.9519 15.49416382580425 0 CXO 1 25867U 99040B 26224.91393943 .00000777 00000-0 00000-0 0 9998 2 25867 56.9891 115.1061 7747830 309.8023 0.5824 0.37805620 17530 ...Continue Reading
  • This mailing list is a public mailing list - anyone may join or leave, at any time.
  • This mailing list is announce-only.

International Space Station (ISS) / Hubble Space Telescope (HST) / Chandra X-Ray Observatory Orbital Data via EMAIL

Privacy Policy:

Private list